STARLINK-11378, 62020

Orbit data source: Space-Track

STARLINK-11378, 62020 is a payload satellite owned by SpaceX/Seattle (US) in LEO that was launched on Mon, 18 Nov 2024 UTC via an FALCON 9 launch vehicle from the Air Force Western Test Range (AFWTR). Payload-class satellites include a variety of spacecraft equipped with specific instruments for various scientific and technological missions. These include communications satellites like Starlink; space stations such as the ISS; scientific satellites like the Hubble; Earth observation satellites from companies like Planet Labs, Umbra, and HawkEye 360; GPS; miniature CubeSats for education and research; and military/defense satellites.

Loading next visibility...
Identifier
62020, 2024-213N
Orbit
LEO
Last TLE update
19 hours ago
Origin
Manufacturer
SpaceX/Seattle
Mission
Operational Commercial Communications
Bus & Motor
STARLINK V2M, Unknown motor
Mass
730 kg wet, ~700 kg dry
Launch date (UTC)
2024-11-18 (7 months ago)
Launch vehicle
FALCON 9
Launch site
Air Force Western Test Range (AFWTR)
Object type
Payload
Rocket body
Debris
Shape & HBR
Box + 2 Pan, 29 m
Radar Cross Section
36.964 m², Large (>1 m²)

Expand to show TLE details & history

TLE from 19 hours ago
0 STARLINK-11378
1 62020U 24213N   25181.45617547  .00177922  00000-0  14395-2 0  9990
2 62020  53.1578 204.3422 0001442  81.0245 279.0936 15.69754541 35303
Epoch: 2025-06-30T10:56Z
TLE epoch observation values (Epoch: 2025-06-30T10:56:53.56Z)
Latitude
-0.00003°
Longitude
121.35328°
Altitude
360.361 km
Speed
7.694 km/s
True Right ascension
13h 37m 22s
True Declination
0° 00' 00"
Sunlit
Object was in daylight at epoch
Visualization orbit readout
Latitude
-36.63388°
Longitude
-28.97146°
Altitude
371.347 km
Speed
7.686 km/s
Apparent Right ascension
04h 40m 49s
Apparent Declination
-39° 18' 17"
Sunlit
Object is in daylight
Visualization observer readout
Local Sidereal Time
17:52:43
Azimuth
93.251° ESE
Elevation
-76.162°
Doppler factor
1
Orbital elements
Apogee altitude
360.832 km
Perigee altitude
358.889 km
Semi-major axis
6,737.997 km
Eccentricity
0.00014
Inclination
53.1578°
RAAN
204.3422°
Arg. of periapsis
81.0245°
True anomaly
Unknown
Mean anomaly
279.0936°
Eccentric anomaly
Unknown
Mean motion
3.92416 °/min
Orbital period
91.74 mins
BSTAR
0.0014395
Loading maneuver chart data...
Loading SW <> Apogee altitude chart data...
Loading historical data...
Loading historical data...
Loading historical data...
Loading historical data...
Loading historical data...
Loading historical data...
Loading historical data...

STARLINK-11378 Visibility forecast

Observer location: undefined°, undefined°

Span
Click to sort rows by Start time (UTC) header in descending order
Start Az.
Max El. time (UTC)
Max El. Az.
Max El.
End time (UTC)
End Az.
5 mins2025-07-01 10:19:57.943Z328.096° NNW2025-07-01 10:22:57.943Z51.865° ENE26.462°2025-07-01 10:24:57.943Z96.616° ESE
4 mins2025-07-02 04:24:57.943Z264.966° W2025-07-02 04:26:57.943Z353.401° N31.052°2025-07-02 04:28:57.943Z35.455° NE
|